[[{"header":{"parameterUnit":"m.s-1","parameterCategory":1,"la1":30.2991,"la2":30.254,"lo1":-89.0895,"lo2":-89.0444,"dy":0.0017,"dx":0.0017,"nx":28,"ny":28,"refTime":"2025-07-22T09:00:00:Z","depth":0,"parameterNumber":2,"parameterNumberName":"U-component_of_WINDS"},"data":[0,0,0,0,0,0,0,0,0,0,0,0,0,0,0,0,0,0,0,0,0,0,0,0,0,0,0,0,0,0,0,0,0,0,0,0,0,0,0,0,0,0,0,0,0,0,0,0,0,0,0,0,0,0,0,0,0,0,1.8568,1.8569,0,1.8604,1.8605,1.8605,1.8602,1.8601,1.8601,1.86,1.864,1.8641,1.8643,0,0,0,0,0,0,0,0,0,0,0,0,0,1.85,1.8502,1.8568,1.8569,1.8569,1.8604,1.8605,1.8605,1.8602,1.8601,1.8601,1.86,1.8639,1.8641,1.8643,0,0,0,0,0,0,0,0,0,0,0,0,0,1.8533,1.8502,1.8568,1.8572,1.8572,1.8604,1.8605,1.8605,1.8602,1.8601,1.86,1.86,1.8638,1.8641,1.8643,1.8674,0,0,1.865,1.8651,0,0,0,0,0,0,0,0,1.8531,1.8535,1.8571,1.8571,1.8572,1.8598,1.8595,1.8629,1.8602,1.8591,1.86,1.8599,1.8626,1.863,1.8638,1.8676,1.8678,1.865,1.8652,1.8653,1.8654,0,0,0,0,0,0,0,1.8528,1.8533,1.8583,1.8571,1.8572,1.8573,1.8576,1.8602,1.8613,1.8592,1.8592,1.8596,1.8627,1.8636,1.8639,1.8679,1.865,1.8653,1.8654,1.8655,1.8747,1.8748,0,0,0,0,0,0,1.8525,1.8532,1.8581,1.8584,1.8549,1.8575,1.8579,1.859,1.8613,1.8615,1.8596,1.8596,1.8633,1.8637,1.8641,1.8681,1.8653,1.8655,1.8656,1.8746,1.8747,1.8748,0,0,0,0,0,0,1.8524,1.8529,1.858,1.8558,1.8564,1.8577,1.859,1.8592,1.8601,1.8616,1.8619,1.8604,1.8632,1.8637,1.8667,1.8682,1.8656,1.8658,1.8745,1.8747,1.8748,1.8761,0,0,0,0,0,0,1.8522,1.8529,1.854,1.8558,1.8565,1.8604,1.8591,1.8593,1.8605,1.8604,1.8624,1.8626,1.8632,1.8663,1.8669,1.8685,1.866,1.8744,1.8746,1.8747,1.8759,1.8762,1.8765,0,0,0,0,0,1.8519,1.8542,1.854,1.8546,1.8579,1.8605,1.8609,1.8614,1.8606,1.8618,1.8628,1.8626,1.8679,1.8666,1.8673,1.869,1.8743,1.8745,1.8747,1.8757,1.8762,1.8765,0,0,0,0,0,0,1.8526,1.8544,1.8543,1.8572,1.8587,1.8604,1.8619,1.8618,1.8637,1.8635,1.8642,1.8646,1.8676,1.8686,1.8671,1.8723,1.871,1.8714,1.8716,1.872,1.8723,1.8721,1.8662,0,0,0,0,0,1.8531,1.8549,1.8564,1.8589,1.8596,1.8607,1.8618,1.8621,1.8637,1.8643,1.8656,1.8672,1.8693,1.8707,1.8727,1.876,1.8766,1.8775,1.8778,1.8781,1.8785,1.8806,1.8811,1.8756,1.8756,1.8756,0,0,1.8541,1.8553,1.8564,1.859,1.8602,1.8623,1.8612,1.8633,1.8649,1.8647,1.8676,1.8685,1.8705,1.8737,1.8751,1.8745,1.8801,1.8784,1.8786,1.8788,1.8809,1.8814,1.8819,1.8758,1.8757,1.8757,0,0,1.857,1.858,1.8603,1.8615,1.8634,1.8641,1.8646,1.8664,1.8671,1.8699,1.8699,1.8718,1.8753,1.8768,1.878,1.8817,1.8816,1.8823,1.8841,1.8861,1.8866,1.887,1.8885,1.889,1.8826,1.8826,1.8826,0,1.8581,1.861,1.8615,1.8637,1.865,1.8648,1.8672,1.8684,1.8708,1.8718,1.8711,1.8756,1.8769,1.8806,1.8815,1.8824,1.8832,1.8821,1.8864,1.8868,1.8872,1.8887,1.8893,1.8827,1.8827,1.8827,1.8827,0,1.8624,1.8645,1.8661,1.8684,1.8699,1.8722,1.8731,1.8745,1.8747,1.8756,1.8786,1.8802,1.8826,1.8834,1.8836,1.8872,1.8868,1.8863,1.885,1.8878,1.8893,1.8898,1.8829,1.8828,1.8828,1.8828,0,0,1.8658,1.8685,1.8691,1.8703,1.8723,1.874,1.8764,1.8787,1.8801,1.8817,1.8839,1.887,1.8866,1.8879,1.8883,1.8901,1.8932,1.8893,1.8894,1.8902,1.8976,1.8981,1.8988,1.8932,1.8933,1.8933,1.8975,0,1.8691,1.8733,1.8738,1.8776,1.8797,1.8797,1.8818,1.8834,1.8843,1.8863,1.8873,1.8896,1.8887,1.8895,1.8913,1.8925,1.8948,1.8922,1.8954,1.8955,1.8951,1.8995,1.9,1.9039,1.898,1.8981,1.8982,0,1.8735,1.8754,1.8794,1.8814,1.8823,1.8841,1.8865,1.8883,1.8902,1.8908,1.8924,1.8926,1.8953,1.8939,1.8977,1.8959,1.8973,1.8981,1.8983,1.8987,1.8971,1.9003,1.9051,1.9057,1.899,1.899,1.8989,0,1.8759,1.8794,1.8823,1.8833,1.8856,1.887,1.8881,1.8899,1.8913,1.8934,1.8944,1.8967,1.898,1.8999,1.9009,1.8997,1.9048,1.9033,1.9055,1.9055,1.9066,1.9066,1.912,1.9072,1.9072,1.9072,1.9072,0,1.8796,1.8821,1.8834,1.8852,1.8881,1.8888,1.8916,1.8927,1.8943,1.8965,1.8966,1.8986,1.8996,1.9019,1.9026,1.9059,1.9064,1.9071,1.9073,1.9072,1.9071,1.9082,1.908,1.9073,1.9073,1.9073,1.9073,0,1.8828,1.8837,1.887,1.889,1.8895,1.8916,1.8934,1.8952,1.8961,1.8989,1.8995,1.901,1.9037,1.9048,1.908,1.9086,1.9124,1.9122,1.9117,1.9118,1.914,1.9138,1.9204,1.9214,1.9158,1.9158,1.9159,0,1.8852,1.8871,1.8894,1.8908,1.8919,1.8942,1.8957,1.8965,1.8981,1.9005,1.9021,1.9048,1.907,1.9113,1.9127,1.9153,1.9154,1.9175,1.9158,1.9157,1.9157,1.9157,1.916,1.9179,1.9179,1.918,1.918,0,1.8895,1.8899,1.892,1.8943,1.8961,1.898,1.8999,1.901,1.9022,1.904,1.9067,1.9084,1.9118,1.9145,1.9172,1.9184,1.9185,1.9185,1.9192,1.9192,1.9189,1.9193,1.9128,1.9184,1.9184,1.9183,1.9183,1.9183,1.8925,1.8943,1.8962,1.8986,1.9001,1.9019,1.9038,1.905,1.9072,1.91,1.9104,1.9134,1.9155,1.9191,1.9205,1.923,1.9224,1.9233,1.9236,1.9239,1.9241,1.9184,1.9234,1.9234,1.9234,1.9234,1.9234,0,1.8969,1.8982,1.9004,1.903,1.905,1.9048,1.9069,1.9086,1.9112,1.9131,1.9153,1.9185,1.9212,1.9229,1.9257,1.9274,1.9275,1.9281,1.9281,1.9284,1.9243,1.9236,1.928,1.928,1.928,1.928,1.928,1.928,1.8995,1.9026,1.9033,1.9072,1.9085,1.9114,1.9127,1.9144,1.916,1.9196,1.9218,1.9229,1.9248,1.9277,1.9303,1.9308,1.9319,1.9325,1.933,1.9292,1.9287,1.9282,1.9275,1.9327,1.9327,1.9369,1.937,1.937]},{"header":{"parameterUnit":"m.s-1","parameterCategory":1,"la1":30.2991,"la2":30.254,"lo1":-89.0895,"lo2":-89.0444,"dy":0.0017,"dx":0.0017,"nx":28,"ny":28,"refTime":"2025-07-22T09:00:00:Z","depth":0,"parameterNumber":3,"parameterNumberName":"V-component_of_WINDS"},"data":[0,0,0,0,0,0,0,0,0,0,0,0,0,0,0,0,0,0,0,0,0,0,0,0,0,0,0,0,0,0,0,0,0,0,0,0,0,0,0,0,0,0,0,0,0,0,0,0,0,0,0,0,0,0,0,0,0,0,-0.0586,-0.0586,0,-0.05,-0.0499,-0.0498,-0.0516,-0.0517,-0.0519,-0.052,-0.0431,-0.0427,-0.0423,0,0,0,0,0,0,0,0,0,0,0,0,0,-0.0768,-0.0765,-0.0587,-0.0585,-0.0584,-0.05,-0.0499,-0.0498,-0.0515,-0.0517,-0.0519,-0.0521,-0.0432,-0.0428,-0.0423,0,0,0,0,0,0,0,0,0,0,0,0,0,-0.0686,-0.0764,-0.0587,-0.0583,-0.0582,-0.05,-0.0499,-0.0497,-0.0515,-0.0517,-0.052,-0.0522,-0.0434,-0.0428,-0.0422,-0.0339,0,0,-0.0405,-0.0402,0,0,0,0,0,0,0,0,-0.0691,-0.068,-0.0585,-0.0583,-0.0582,-0.0521,-0.053,-0.0444,-0.0514,-0.054,-0.052,-0.0523,-0.0459,-0.0451,-0.043,-0.0335,-0.0331,-0.0404,-0.0401,-0.0398,-0.0396,0,0,0,0,0,0,0,-0.0696,-0.0683,-0.0552,-0.0583,-0.0581,-0.0586,-0.0577,-0.0514,-0.0487,-0.0538,-0.0539,-0.0529,-0.0459,-0.0435,-0.0428,-0.033,-0.0404,-0.0399,-0.0396,-0.0393,-0.0166,-0.0164,0,0,0,0,0,0,-0.0704,-0.0688,-0.0555,-0.055,-0.0643,-0.0581,-0.0571,-0.0538,-0.0488,-0.0483,-0.0527,-0.053,-0.0444,-0.0434,-0.0425,-0.0327,-0.0398,-0.0393,-0.0389,-0.0169,-0.0166,-0.0163,0,0,0,0,0,0,-0.0707,-0.0691,-0.0559,-0.0619,-0.0603,-0.0575,-0.0538,-0.0535,-0.0512,-0.0479,-0.0475,-0.0508,-0.0445,-0.0433,-0.0361,-0.0324,-0.039,-0.0385,-0.0172,-0.0168,-0.0164,-0.0129,0,0,0,0,0,0,-0.0712,-0.0693,-0.066,-0.0618,-0.0599,-0.0496,-0.0536,-0.0532,-0.0502,-0.0505,-0.046,-0.0455,-0.0446,-0.037,-0.0355,-0.0317,-0.038,-0.0175,-0.017,-0.0165,-0.0133,-0.0124,-0.0116,0,0,0,0,0,-0.0719,-0.0653,-0.0658,-0.0642,-0.0558,-0.0494,-0.0483,-0.0474,-0.0499,-0.0467,-0.0446,-0.0457,-0.033,-0.0362,-0.0346,-0.0306,-0.0177,-0.0171,-0.0166,-0.0137,-0.0126,-0.0116,0,0,0,0,0,0,-0.069,-0.0647,-0.0653,-0.0571,-0.0536,-0.0497,-0.0455,-0.0462,-0.0419,-0.0424,-0.0414,-0.0404,-0.0332,-0.0311,-0.0348,-0.0224,-0.0257,-0.0248,-0.0241,-0.023,-0.0222,-0.0229,-0.0376,0,0,0,0,0,-0.0674,-0.0625,-0.059,-0.0521,-0.0504,-0.0483,-0.0454,-0.0451,-0.0414,-0.0399,-0.0373,-0.0337,-0.029,-0.0258,-0.0212,-0.013,-0.0122,-0.0094,-0.0086,-0.0079,-0.0072,-0.003,-0.0019,-0.0144,-0.0144,-0.0144,0,0,-0.064,-0.0611,-0.058,-0.0515,-0.0487,-0.0438,-0.047,-0.0415,-0.0379,-0.039,-0.0322,-0.0302,-0.0261,-0.0185,-0.015,-0.0166,-0.0035,-0.0072,-0.0067,-0.0063,-0.0023,-0.0011,-0.0001,-0.014,-0.0141,-0.0141,0,0,-0.0555,-0.0526,-0.0468,-0.044,-0.0399,-0.0386,-0.0372,-0.0332,-0.0319,-0.0251,-0.026,-0.0216,-0.0133,-0.0105,-0.008,0.0013,0.0004,0.0028,0.0071,0.0111,0.0121,0.013,0.016,0.0171,0.0035,0.0035,0.0035,0,-0.0518,-0.0444,-0.0437,-0.0383,-0.0355,-0.0364,-0.0305,-0.0279,-0.0224,-0.0205,-0.0223,-0.0122,-0.0095,-0.0014,0.0008,0.003,0.0045,0.0022,0.0119,0.0128,0.0136,0.0165,0.0177,0.0038,0.0038,0.0037,0.0037,0,-0.0403,-0.0352,-0.031,-0.0259,-0.0226,-0.0169,-0.0154,-0.0122,-0.0122,-0.0107,-0.0039,-0.0007,0.0043,0.0063,0.0065,0.0144,0.0132,0.0117,0.0083,0.015,0.0177,0.0189,0.0041,0.004,0.004,0.0039,0,0,-0.0296,-0.0244,-0.0229,-0.0207,-0.0163,-0.0124,-0.0069,-0.002,0.0006,0.0044,0.0088,0.0157,0.0142,0.017,0.0175,0.021,0.0278,0.019,0.0191,0.0202,0.0363,0.0373,0.0385,0.0272,0.0275,0.0276,0.0358,0,-0.0209,-0.0113,-0.0106,-0.002,0.0026,0.0017,0.0064,0.0096,0.011,0.0151,0.0167,0.0214,0.0192,0.0209,0.0244,0.0262,0.031,0.0257,0.0312,0.0314,0.03,0.04,0.0412,0.0487,0.0369,0.0371,0.0373,0,-0.0094,-0.0056,0.0035,0.0069,0.0088,0.0131,0.0174,0.0214,0.0248,0.0256,0.0286,0.0285,0.034,0.0305,0.0379,0.0343,0.0366,0.0378,0.0381,0.0385,0.0346,0.0404,0.0512,0.0523,0.039,0.0389,0.0387,0,-0.003,0.0046,0.0108,0.0128,0.017,0.02,0.0219,0.0251,0.0278,0.0316,0.0334,0.0378,0.0402,0.0435,0.0445,0.042,0.0518,0.0485,0.0524,0.0524,0.0544,0.0542,0.0654,0.0563,0.0563,0.0562,0.0562,0,0.0066,0.0121,0.0138,0.0176,0.0236,0.0244,0.0303,0.0321,0.0349,0.0389,0.0385,0.0423,0.0435,0.0475,0.0483,0.0541,0.0553,0.0559,0.056,0.0558,0.0557,0.0572,0.0566,0.0565,0.0565,0.0564,0.0564,0,0.0148,0.0162,0.0229,0.0263,0.0273,0.0315,0.0344,0.038,0.0393,0.0444,0.0457,0.0478,0.0524,0.0537,0.0594,0.0599,0.0666,0.0664,0.0654,0.0653,0.069,0.0685,0.0814,0.083,0.0731,0.0732,0.0732,0,0.0207,0.0248,0.0286,0.0312,0.0332,0.0375,0.0402,0.0411,0.0439,0.048,0.0511,0.0556,0.0593,0.0667,0.0687,0.0729,0.0726,0.0768,0.0732,0.0727,0.0723,0.0719,0.0722,0.0774,0.0775,0.0776,0.0777,0,0.0308,0.0312,0.0352,0.0393,0.0425,0.0458,0.049,0.0512,0.0525,0.0557,0.0603,0.0632,0.0688,0.0732,0.0774,0.0793,0.0786,0.0788,0.0798,0.0796,0.0787,0.0789,0.0669,0.0785,0.0784,0.0783,0.0783,0.0782,0.0379,0.0414,0.0444,0.0488,0.0512,0.0541,0.0575,0.0592,0.0631,0.0677,0.0679,0.0729,0.076,0.0816,0.0836,0.0875,0.0862,0.0878,0.0882,0.0885,0.0887,0.0783,0.0883,0.0882,0.0882,0.0882,0.0882,0,0.0477,0.0496,0.0536,0.0579,0.0612,0.0603,0.0637,0.0665,0.0709,0.0738,0.0773,0.0825,0.0868,0.089,0.0931,0.0957,0.0955,0.0968,0.0965,0.0968,0.0897,0.0882,0.0969,0.0969,0.0969,0.0969,0.0969,0.0969,0.0532,0.059,0.0597,0.0666,0.0685,0.0733,0.0752,0.0778,0.0801,0.0859,0.0894,0.0908,0.0933,0.0976,0.1014,0.1019,0.1033,0.1047,0.105,0.0983,0.0974,0.0966,0.0951,0.1051,0.1051,0.1118,0.1119,0.1119]}]]